Location: Banios
(43.0451°N, 0.2335°E)
Time: 14:08:32
(UTC+00:00)

Vanguard 2 - All Passes

Search period start: 08 May 2021 00:00
Search period end: 18 May 2021 00:00
Orbit: 552 x 2938 km, 32.9° (Epoch: 08 May)

Date Brightness Start Highest point End Pass type
(mag) Time Alt. Az. Time Alt. Az. Time Alt. Az.
08 May - 04:36:57 10° S 04:44:37 20° SE 04:54:22 10° E daylight
08 May - 06:41:22 10° SW 06:53:24 46° SSE 07:09:28 10° E daylight
08 May - 08:49:39 10° WSW 09:04:33 59° S 09:21:49 10° ESE daylight
08 May - 11:00:08 10° W 11:16:26 51° SSW 11:32:00 10° SE daylight
08 May - 13:13:08 10° W 13:26:51 29° SW 13:38:38 10° SSE daylight
09 May - 04:52:55 10° S 05:01:35 26° SE 05:13:14 10° E daylight
09 May - 06:58:34 10° SW 07:10:51 51° SSE 07:27:25 10° E daylight
09 May - 09:07:17 10° WSW 09:22:16 59° S 09:39:29 10° ESE daylight
09 May - 11:18:02 10° W 11:33:57 46° SSW 11:49:08 10° SE daylight
09 May - 13:31:58 10° W 13:43:56 23° SW 13:54:28 10° S daylight
10 May - 05:09:24 10° SSW 05:18:40 32° SE 05:31:41 10° E daylight
10 May - 07:15:54 10° WSW 07:28:24 54° SSE 07:45:18 10° E daylight
10 May - 09:24:57 10° W 09:39:59 57° S 09:57:03 10° ESE daylight
10 May - 11:36:03 10° W 11:51:24 40° SSW 12:06:02 10° SSE daylight
10 May - 13:51:37 10° W 14:00:57 17° SW 14:09:26 10° SSW daylight
11 May - 03:24:18 10° SSE 03:28:13 13° SE 03:32:46 10° ESE visible
11 May - 05:26:12 10° SSW 05:35:52 38° SSE 05:49:53 10° E daylight
11 May - 07:33:21 10° WSW 07:46:02 57° S 08:03:07 10° E daylight
11 May - 09:42:42 10° W 09:57:39 54° SSW 10:14:30 10° ESE daylight
11 May - 11:54:14 10° W 12:08:44 34° SSW 12:22:37 10° SSE daylight
11 May - 14:13:35 10° WSW 14:17:54 11° SW 14:22:03 10° SW daylight
12 May - 03:39:11 10° S 03:45:06 18° SE 03:52:44 10° E visible
12 May - 05:43:15 10° SW 05:53:12 44° SSE 06:07:56 10° E daylight
12 May - 07:50:54 10° WSW 08:03:42 58° S 08:20:52 10° ESE daylight
12 May - 10:00:30 10° W 10:15:16 49° SSW 10:31:46 10° SE daylight
12 May - 12:12:42 10° W 12:26:00 28° SW 12:38:48 10° SSE daylight
13 May - 03:55:12 10° S 04:02:04 24° SE 04:11:38 10° E visible
13 May - 06:00:28 10° SW 06:10:39 49° SSE 06:25:53 10° E daylight
13 May - 08:08:30 10° WSW 08:21:24 57° S 08:38:32 10° ESE daylight
13 May - 10:18:24 10° W 10:32:50 44° SSW 10:48:49 10° SE daylight
13 May - 12:31:39 10° W 12:43:11 22° SW 12:54:23 10° S daylight
14 May - 04:11:44 10° SSW 04:19:10 30° SE 04:30:03 10° E daylight
14 May - 06:17:49 10° WSW 06:28:10 52° SSE 06:43:46 10° E daylight
14 May - 08:26:10 10° W 08:39:05 54° S 08:56:05 10° ESE daylight
14 May - 10:36:24 10° W 10:50:19 38° SSW 11:05:36 10° SSE daylight
14 May - 12:51:34 10° WSW 13:00:19 16° SW 13:08:54 10° SSW daylight
15 May - 02:28:40 10° SE 02:29:15 10° SE 02:29:51 10° SE visible
15 May - 04:28:36 10° SSW 04:36:23 36° SSE 04:48:13 10° E daylight
15 May - 06:35:18 10° WSW 06:45:46 54° S 07:01:36 10° ESE daylight
15 May - 08:43:53 10° W 08:56:46 50° SSW 09:13:29 10° SE daylight
15 May - 10:54:38 10° W 11:07:45 32° SSW 11:22:01 10° SSE daylight
15 May - 13:15:16 10° SW 13:17:26 10° SW 13:19:35 10° SW daylight
16 May - 02:42:02 10° SSE 02:46:11 15° SE 02:51:20 10° ESE visible
16 May - 04:45:41 10° SW 04:53:43 41° SSE 05:06:16 10° E daylight
16 May - 06:52:50 10° WSW 07:03:26 55° S 07:19:20 10° ESE daylight
16 May - 09:01:40 10° W 09:14:24 46° SSW 09:30:41 10° SE daylight
16 May - 11:13:12 10° W 11:25:07 25° SW 11:37:57 10° S daylight
17 May - 02:58:00 10° S 03:03:11 21° SE 03:10:18 10° E visible
17 May - 05:02:57 10° SW 05:11:08 46° SSE 05:24:12 10° E daylight
17 May - 07:10:25 10° WSW 07:21:06 53° S 07:36:59 10° ESE daylight
17 May - 09:19:35 10° W 09:32:00 40° SSW 09:47:37 10° SE daylight
17 May - 11:32:23 10° WSW 11:42:27 19° SW 11:53:08 10° S daylight
